Miscellaneous Local Product
Issued by NWS North Platte, NE

Home | Current Version | Previous Version | Text Only | Print | Product List | Glossary On
Versions: 1 2 3 4 5 6 7 8 9 10 11 12 13 14 15 16 17 18 19 20 21 22 23 24 25 26 27 28 29 30 31 32 33 34 35 36 37 38 39 40 41 42 43 44 45 46 47 48 49 50
000
AXUS43 KLBF 051210
MISLBF


WESTERN AND NORTH CENTRAL NEBRASKA HOURLY WEATHER ROUNDUP
NATIONAL WEATHER SERVICE NORTH PLATTE NE
600 AM CST THU MAR 05 2015

***STATIONS NOT REPORTING VARIABLES SUCH AS SKY/WEATHER OR
PRESSURE ARE PROVIDED BY THE NEBRASKA DEPARTMENT OF
ROADS...RAWS...AND APRS NETWORKS...AND ARE NOT UNDER
NATIONAL WEATHER SERVICE QUALITY CONTROL***

...OBSERVATIONS IN AND NEAR THE EASTERN PANHANDLE OF NEBRASKA...

CITY           SKY/WX    TMP DP  RH WIND       PRES   REMARKS
PINE RIDGE     PTCLDY    -4 -10  75 W5        30.18S WCI -15
CHADRON        PTCLDY    -7 -13  75 CALM      30.19S
ALLIANCE       PTCLDY    -2  -7  79 W7        30.16F WCI -15
SIDNEY         CLEAR      5   0  79 W9        30.18S WCI  -9
WHITECLAY        N/A     28  21  74 E7          N/A  WCI  21
CRESCENT LAKE    N/A      8   1  72 SW6         N/A  WCI  -2
LISCO            N/A     11   2  67 W6          N/A  WCI   2
BIG SPRINGS      N/A      7   4  87 SW6         N/A  WCI  -3
LEWELLEN         N/A     -1  -4  85 CALM        N/A
$$

...OBSERVATIONS IN NORTH CENTRAL NEBRASKA...

CITY           SKY/WX    TMP DP  RH WIND       PRES   REMARKS
VALENTINE      PTCLDY     0  -6  76 CALM      30.27F
THEDFORD       PTCLDY     5  -1  77 S5        30.28S WCI  -4
AINSWORTH      PTCLDY     3  -2  79 S6        30.29S WCI  -8
O`NEILL        PTCLDY     0  -5  81 SW3       30.36S
ORD            CLEAR     -1  -8  72 CALM      30.38S
BROKEN BOW     CLEAR     -3  -8  79 CALM      30.34R
BROWNLEE         N/A      0  -4  82 S8          N/A  WCI -14
SPRINGVIEW       N/A     -7 -11  81 CALM        N/A
BREWSTER         N/A      4   0  83 SW7         N/A  WCI  -8
ROSE             N/A     10   7  89 CALM        N/A
NEWPORT          N/A     10   6  86 SW6         N/A  WCI   0
SARGENT          N/A      1  -3  83 CALM        N/A
COMSTOCK         N/A     30  23  74 S5          N/A  WCI  25
CHAMBERS         N/A      1 -18  40 S3          N/A
EWING            N/A     -2  -6  81 CALM        N/A
$$

...OBSERVATIONS IN SOUTHWEST NEBRASKA AND FAR NORTHEAST COLORADO...

CITY           SKY/WX    TMP DP  RH WIND       PRES   REMARKS
WRAY           FAIR      10   6  85 SW6       30.26R WCI   0
IMPERIAL         N/A      5   0  79 S3        30.27R
OGALLALA       CLEAR      3   0  88 CALM      30.26R
NORTH PLATTE   CLEAR      1  -4  79 E5        30.32R WCI  -9
MCCOOK         CLEAR      8   0  69 E6        30.34S WCI  -2
LEXINGTON      PTCLDY     3  -1  82 CALM      30.37R
PAXTON           N/A      5   0  79 CALM        N/A
BRADY            N/A      1  -4  78 CALM        N/A
GOTHENBURG       N/A      2  -3  77 CALM        N/A
CALLAWAY         N/A      0  -4  80 SE8         N/A  WCI -14
$$

...NORTH PLATTE AREA...

CITY           SKY/WX    TMP DP  RH WIND       PRES   REMARKS
AIRPORT        CLEAR      1  -4  79 E5        30.32R WCI  -9
DOWNTOWN         N/A      5  -1  75 CALM        N/A
$$

...SOME WEATHER OBSERVATIONS FROM AROUND THE REGION...

CITY           SKY/WX    TMP DP  RH WIND       PRES   REMARKS
DENVER         PTCLDY    16  -1  47 S15       30.14S WCI   1
LARAMIE        PTCLDY    14   3  61 SW22      30.12R WCI  -4
CHEYENNE       CLEAR     21   3  45 W12       30.10R WCI   9
SCOTTSBLUFF    CLEAR      8   2  76 CALM      30.18F
RAPID CITY     CLEAR      1  -3  83 CALM      30.14S
PIERRE         PTCLDY    -6  -9  86 SE5       30.30F WCI -17
WINNER         FAIR       7  -4  60 SW14      30.31S WCI -10
SIOUX FALLS    PTCLDY    -9 -14  78 CALM      30.44R
OMAHA          CLEAR      4  -3  73 CALM      30.53R
GRAND ISLAND   CLEAR      4  -3  73 S3        30.43S
KANSAS CITY    CLEAR      7  -1  70 N8        30.52R WCI  -6
WICHITA        CLEAR     13   6  74 CALM      30.49R
HAYS           CLEAR     10  -2  56 CALM      30.40R
LIBERAL        CLEAR     10   3  72 W9        30.41S WCI  -2
GOODLAND       CLEAR     14   8  77 W13       30.28R WCI   0
$$



USA.gov is the U.S. government's official web portal to all federal, state and local government web resources and services.